Starkville, MS

2:54 PM CDT on August 28, 2016 (GMT -0500)
Bryan

Weather History for KSTF - March, 2013

Change the Weather History Date:

Tuesday, March 5, 2013

  Actual Average Record
Temperature  
Mean Temperature 50 °F -  
Max Temperature 64 °F 62 °F 69 °F (2016)
Min Temperature 35 °F 40 °F 24 °F (2015)
Degree Days  
Heating Degree Days 16    
Moisture  
Dew Point 44 °F    
Average Humidity 76    
Maximum Humidity 93    
Minimum Humidity 54    
Precipitation  
Precipitation 0.02 in - - ()
Sea Level Pressure  
Sea Level Pressure 29.98 in    
Wind  
Wind Speed 8 mph (WSW)    
Max Wind Speed 18 mph    
Max Gust Speed 31 mph    
Visibility 10 miles    
Events Thunderstorm    
Averages and records for this station are not official NWS values.
T = Trace of Precipitation, MM = Missing Value Source: NWS Daily Summary

Daily Weather History Graph

Daily Weather History Graph

Search for Another Location

Airport or City:

Trip Planner

Search our weather history database for the weather conditions in past years. The results will help you decide how hot, cold, wet, or windy it might be!

Date:

Astronomy

Mar. 05, 2013 Rise Set
Actual Time 6:18 AM CST 5:55 PM CST
Civil Twilight 5:53 AM CST 6:20 PM CST
Nautical Twilight 5:24 AM CST 6:49 PM CST
Astronomical Twilight 4:56 AM CST 7:18 PM CST
Moon 1:17 AM CST (3/5) 11:47 AM CST (3/5)
Length of Visible Light 12h 26m
Length of Day
11h 37m
Last Quarter, 40% of the Moon is Illuminated
Mar 5
Last Quarter
Mar 11
New
Mar 19
First Quarter
Mar 27
Full
Apr 2
Last Quarter

Hourly Weather History & Observations

Time (CST) Temp. Windchill Dew Point Humidity Pressure Visibility Wind Dir Wind Speed Gust Speed Precip Events Conditions
12:15 AM 59.0 °F - 50.0 °F 72% 29.91 in 10.0 mi SSE 5.8 mph - N/A   Overcast
12:35 AM 57.2 °F - 50.0 °F 77% 29.91 in 10.0 mi SE 8.1 mph - N/A   Overcast
12:55 AM 59.0 °F - 50.0 °F 72% 29.91 in 10.0 mi SSE 6.9 mph - N/A   Overcast
1:15 AM 59.0 °F - 50.0 °F 72% 29.91 in 10.0 mi SSE 9.2 mph - N/A   Overcast
1:35 AM 59.0 °F - 50.0 °F 72% 29.91 in 10.0 mi SSE 6.9 mph - N/A   Overcast
1:55 AM 59.0 °F - 51.8 °F 77% 29.90 in 10.0 mi SSE 6.9 mph - N/A   Overcast
2:15 AM 59.0 °F - 51.8 °F 77% 29.89 in 10.0 mi SSE 11.5 mph - N/A   Overcast
2:35 AM 59.0 °F - 51.8 °F 77% 29.89 in 10.0 mi South 9.2 mph - N/A   Overcast
2:55 AM 59.0 °F - 51.8 °F 77% 29.89 in 10.0 mi South 6.9 mph - N/A   Overcast
3:15 AM 59.0 °F - 51.8 °F 77% 29.90 in 10.0 mi South 6.9 mph - N/A   Overcast
3:35 AM 59.0 °F - 51.8 °F 77% 29.90 in 10.0 mi South 4.6 mph - N/A   Overcast
3:55 AM 59.0 °F - 51.8 °F 77% 29.90 in 10.0 mi South 6.9 mph - N/A   Overcast
4:15 AM 59.0 °F - 51.8 °F 77% 29.90 in 10.0 mi South 6.9 mph - N/A   Overcast
4:55 AM 59.0 °F - 53.6 °F 82% 29.90 in 10.0 mi SSE 6.9 mph - N/A   Overcast
5:15 AM 59.0 °F - 53.6 °F 82% 29.91 in 10.0 mi SSE 5.8 mph - N/A   Overcast
5:35 AM 57.2 °F - 53.6 °F 88% 29.91 in 10.0 mi SSE 8.1 mph - N/A   Overcast
5:55 AM 55.4 °F - 51.8 °F 88% 29.91 in 10.0 mi SSE 5.8 mph - N/A   Overcast
6:15 AM 57.2 °F - 51.8 °F 82% 29.92 in 10.0 mi South 3.5 mph - N/A   Overcast
6:35 AM 57.2 °F - 53.6 °F 88% 29.91 in 10.0 mi South 5.8 mph - N/A   Overcast
6:55 AM 55.4 °F - 51.8 °F 88% 29.91 in 10.0 mi South 6.9 mph - N/A   Overcast
7:15 AM 55.4 °F - 51.8 °F 88% 29.89 in 10.0 mi SSE 8.1 mph - N/A   Overcast
7:35 AM 57.2 °F - 53.6 °F 88% 29.88 in 10.0 mi South 6.9 mph - N/A   Overcast
7:55 AM 59.0 °F - 53.6 °F 82% 29.88 in 10.0 mi South 8.1 mph - N/A   Overcast
8:15 AM 59.0 °F - 53.6 °F 82% 29.88 in 10.0 mi South 8.1 mph - N/A   Overcast
8:35 AM 60.8 °F - 55.4 °F 82% 29.87 in 10.0 mi SSW 11.5 mph 18.4 mph N/A   Overcast
8:55 AM 62.6 °F - 55.4 °F 77% 29.86 in 10.0 mi SSW 11.5 mph 20.7 mph N/A   Overcast
9:15 AM 62.6 °F - 55.4 °F 77% 29.86 in 10.0 mi SW 10.4 mph 17.3 mph N/A   Overcast
9:35 AM 62.6 °F - 55.4 °F 77% 29.84 in 10.0 mi SSW 11.5 mph 20.7 mph N/A   Overcast
9:55 AM 64.4 °F - 57.2 °F 77% 29.83 in 10.0 mi SW 8.1 mph 17.3 mph N/A   Overcast
10:15 AM 64.4 °F - 57.2 °F 77% 29.83 in 10.0 mi SW 10.4 mph 19.6 mph N/A   Overcast
10:35 AM 64.4 °F - 57.2 °F 77% 29.83 in 10.0 mi SW 13.8 mph 25.3 mph N/A Thunderstorm Overcast
10:55 AM 64.4 °F - 57.2 °F 77% 29.83 in 10.0 mi SW 11.5 mph 19.6 mph N/A   Overcast
11:15 AM 53.6 °F - 50.0 °F 88% 29.90 in 10.0 mi WNW 18.4 mph 31.1 mph 0.02 in   Overcast
11:35 AM 53.6 °F - 50.0 °F 88% 29.91 in 10.0 mi WNW 6.9 mph 20.7 mph 0.02 in   Overcast
11:55 AM 51.8 °F - 48.2 °F 88% 29.93 in 1.8 mi West 10.4 mph 20.7 mph 0.02 in   Overcast
12:15 PM 50.0 °F - 44.6 °F 82% 29.96 in 10.0 mi West 15.0 mph 25.3 mph N/A   Overcast
12:35 PM 46.4 °F 39.5 °F 42.8 °F 87% 29.98 in 10.0 mi WNW 17.3 mph 27.6 mph N/A   Overcast
12:55 PM 46.4 °F 40.7 °F 42.8 °F 87% 29.99 in 10.0 mi WNW 12.7 mph 21.9 mph N/A   Overcast
1:15 PM 48.2 °F - 41.0 °F 76% 29.99 in 10.0 mi West 17.3 mph 25.3 mph N/A   Overcast
1:35 PM 46.4 °F 40.7 °F 39.2 °F 76% 30.00 in 10.0 mi NW 12.7 mph 25.3 mph N/A   Overcast
1:55 PM 46.4 °F 39.8 °F 39.2 °F 76% 30.01 in 10.0 mi NW 16.1 mph 21.9 mph N/A   Overcast
2:15 PM 46.4 °F 40.4 °F 37.4 °F 71% 30.02 in 10.0 mi NW 13.8 mph 24.2 mph N/A   Overcast
2:35 PM 46.4 °F 41.1 °F 37.4 °F 71% 30.03 in 10.0 mi NW 11.5 mph 20.7 mph N/A   Overcast
2:55 PM 48.2 °F - 37.4 °F 66% 30.04 in 10.0 mi NW 12.7 mph 20.7 mph N/A   Overcast
3:15 PM 48.2 °F - 35.6 °F 62% 30.04 in 10.0 mi NW 10.4 mph 18.4 mph N/A   Overcast
3:35 PM 51.8 °F - 35.6 °F 54% 30.05 in 10.0 mi West 9.2 mph - N/A   Overcast
3:55 PM 48.2 °F - 35.6 °F 62% 30.06 in 10.0 mi NW 9.2 mph - N/A   Overcast
4:15 PM 48.2 °F - 35.6 °F 62% 30.07 in 10.0 mi WNW 3.5 mph - N/A   Overcast
4:35 PM 48.2 °F - 35.6 °F 62% 30.07 in 10.0 mi WNW 8.1 mph - N/A   Scattered Clouds
4:55 PM 50.0 °F - 35.6 °F 58% 30.07 in 10.0 mi NW 8.1 mph - N/A   Scattered Clouds
5:15 PM 50.0 °F - 35.6 °F 58% 30.07 in 10.0 mi NW 6.9 mph 18.4 mph N/A   Clear
5:35 PM 48.2 °F - 35.6 °F 62% 30.08 in 10.0 mi NW 3.5 mph - N/A   Clear
5:55 PM 46.4 °F 44.3 °F 33.8 °F 62% 30.08 in 10.0 mi WNW 4.6 mph - N/A   Clear
6:15 PM 46.4 °F 45.2 °F 33.8 °F 62% 30.09 in 10.0 mi West 3.5 mph - N/A   Clear
6:35 PM 44.6 °F 43.1 °F 33.8 °F 66% 30.09 in 10.0 mi West 3.5 mph - N/A   Clear
6:55 PM 42.8 °F - 33.8 °F 70% 30.09 in 10.0 mi Calm Calm - N/A   Clear
7:15 PM 41.0 °F - 33.8 °F 76% 30.09 in 10.0 mi Calm Calm - N/A   Clear
7:35 PM 39.2 °F - 35.6 °F 87% 30.10 in 10.0 mi Calm Calm - N/A   Clear
7:55 PM 37.4 °F - 33.8 °F 87% 30.10 in 10.0 mi Calm Calm - N/A   Scattered Clouds
8:15 PM 35.6 °F - 33.8 °F 93% 30.10 in 10.0 mi Calm Calm - N/A   Scattered Clouds
8:35 PM 35.6 °F - 33.8 °F 93% 30.11 in 10.0 mi Calm Calm - N/A   Clear
8:55 PM 41.0 °F 39.0 °F 35.6 °F 81% 30.12 in 10.0 mi NW 3.5 mph - N/A   Clear
9:15 PM 41.0 °F 39.0 °F 33.8 °F 76% 30.13 in 10.0 mi WNW 3.5 mph - N/A   Clear
9:35 PM 39.2 °F - 33.8 °F 81% 30.14 in 10.0 mi Calm Calm - N/A   Clear
9:55 PM 39.2 °F 35.9 °F 32.0 °F 75% 30.14 in 10.0 mi WNW 4.6 mph - N/A   Clear
10:15 PM 41.0 °F - 32.0 °F 70% 30.14 in 10.0 mi Calm Calm - N/A   Clear
10:35 PM 39.2 °F 35.0 °F 32.0 °F 75% 30.14 in 10.0 mi WNW 5.8 mph - N/A   Clear
10:55 PM 39.2 °F 37.0 °F 32.0 °F 75% 30.14 in 10.0 mi WNW 3.5 mph - N/A   Clear
11:15 PM 37.4 °F 32.8 °F 30.2 °F 75% 30.15 in 10.0 mi WNW 5.8 mph - N/A   Clear
11:35 PM 37.4 °F 34.9 °F 30.2 °F 75% 30.16 in 10.0 mi NW 3.5 mph - N/A   Clear
11:55 PM 37.4 °F 33.8 °F 30.2 °F 75% 30.16 in 10.0 mi WNW 4.6 mph - N/A   Clear